Regional Weather Roundup
Issued by NWS Cleveland, OH

Current Version | Previous Version | Text Only | Print | Product List | Glossary On
Versions: 1 2 3 4 5 6 7 8 9 10 11 12 13 14 15 16 17 18 19 20 21 22 23 24 25 26 27 28 29 30 31 32 33 34 35 36 37 38 39 40 41 42 43 44 45 46 47 48 49 50
000
ASUS41 KCLE 271402
RWRCLE
OHIO REGIONAL WEATHER ROUNDUP
NATIONAL WEATHER SERVICE CLEVELAND, OH
1000 AM EDT WED JUL 27 2016

NOTE: "FAIR" INDICATES FEW OR NO CLOUDS BELOW 12,000 FEET WITH NO
SIGNIFICANT WEATHER AND/OR OBSTRUCTIONS TO VISIBILITY.

OHZ001>008-015>018-024>027-034-035-043-044-271500-
   NORTHWEST OHIO

CITY           SKY/WX    TMP DP  RH WIND       PRES   REMARKS
DEFIANCE       SUNNY     80  65  59 CALM      30.04S
FINDLAY        SUNNY     81  61  50 S3        30.03F
TOLEDO EXPRESS SUNNY     80  64  58 W5        30.03S
TOLEDO EXEC    SUNNY     81  63  54 W5        30.04S
LIMA           SUNNY     79  64  60 W3        30.04F
$$

OHZ009>014-019>023-028>033-038-089-271500-
   NORTHEAST OHIO

CITY           SKY/WX    TMP DP  RH WIND       PRES   REMARKS
CLE-HOPKINS    SUNNY     83  54  36 SW3       30.06R
CLE-LAKEFRONT  SUNNY     80  62  54 W6        30.02S
CUY CO. ARPT   SUNNY    N/A N/A N/A E9        30.05S
LORAIN-ELYRIA  SUNNY     79  62  56 VRB3      30.05S
ASHTABULA      SUNNY     78  65  63 SW6       30.05S
AKRON-CANTON   MOSUNNY   82  52  35 CALM      30.05F
WOOSTER        SUNNY     79  60  52 CALM      30.06S
MANSFIELD      SUNNY     81  57  43 VRB3      30.06S
YOUNGSTOWN     MOSUNNY   78  59  51 S3        30.05F
$$

OHZ042-051>053-060>062-070>072-077>081-271500-
  SOUTHWEST OHIO

CITY           SKY/WX    TMP DP  RH WIND       PRES   REMARKS
CINC-COVINGTON CLOUDY    78  73  84 N3        30.04R
CINC-LUNKEN    CLOUDY    78  75  90 CALM      30.03S
HAMILTON       CLOUDY    78  69  73 NW3       30.04F
DAYTON         MOSUNNY   80  70  71 CALM      30.04F
WRIGHT-PAT AFB NOT AVBL
DAYTON GENERAL CLOUDY    79  69  71 VRB3      30.03F
WILMINGTON     CLOUDY    80  73  79 N3        30.03F
$$

OHZ036-037-039>041-045>050-054>059-063>069-073>076-082>088-271500-
  CENTRAL AND SOUTHEAST OHIO

CITY           SKY/WX    TMP DP  RH WIND       PRES   REMARKS
COLUMBUS       MOSUNNY   80  70  71 CALM      30.02F
OSU AIRPORT    MOSUNNY   79  66  64 NE3       30.03F
BOLTON FIELD   SUNNY     79  72  78 NW3       30.04S
RICKENBACK AFB SUNNY     77  71  81 CALM      30.02F
NEWARK         MOSUNNY   78  64  61 CALM      30.03F
MARION         SUNNY     81  52  36 S3        30.05F
LANCASTER      MOSUNNY   79  74  84 CALM      30.03F
ZANESVILLE     MOSUNNY   82  71  69 CALM      30.03F
NEW PHILLY     SUNNY     83  60  45 CALM      30.04S
$$




USA.gov is the U.S. government's official web portal to all federal, state and local government web resources and services.